SCP
0 0 0 0 0 0 0 0 0 0 0 0 0 0 0 0 0 0 0 0 0 0 0 0 0 0 0 0 0 0 0 0 0 0 0 0 0 0 0 0 0 0 0
0 0 0 0 0 0 0 0 0 0 0 0 0 0 0 0 0 0 0 0 0 0 0 0 0 0 0 0 0 0 0 0 0 0 0 0 0 0 0 0 0 0 0
0 0 0 0 0 0 0 0 0 0 0 0 0 0 0 0 0 0 0 0 0 0 0 0 1 0 0 0 0 0 0 0 0 0 0 0 0 0 0 0 0 0 0
0 0 0 0 0 0 0 0 0 0 0 0 0 0 0 0 0 0 0 0 1 0 0 0 0 0 0 0 0 0 0 0 0 0 0 0 0 0 0 0 0 0 0
0 0 0 0 0 0 0 0 0 0 0 0 0 0 0 0 0 0 0 0 0 1 0 0 0 0 0 0 0 0 0 0 0 0 0 0 0 0 0 0 0 0 0
0 0 0 0 0 0 0 0 0 0 0 0 0 0 0 0 0 0 0 0 0 0 1 0 0 0 0 0 0 0 0 0 0 0 0 0 0 0 0 0 0 0 0
0 0 0 0 0 0 0 0 0 0 0 0 0 0 0 0 0 1 0 0 0 0 1 1 1 0 0 0 0 0 0 0 0 0 0 0 0 0 0 0 0 0 0
0 0 0 0 0 0 0 0 0 0 0 0 0 0 0 0 0 0 0 0 0 0 0 0 0 0 0 0 0 0 0 0 0 0 0 0 0 0 0 0 0 0 0
0 0 0 0 0 0 0 0 0 0 0 0 0 0 0 0 0 0 0 0 0 0 0 0 0 0 0 0 0 0 0 0 0 0 0 0 0 0 0 0 0 0 0
0 0 0 0 0 0 0 0 0 0 0 0 0 0 0 0 0 0 0 0 0 0 0 0 0 0 0 0 0 0 0 0 0 0 0 0 0 0 0 0 0 0 0
0 0 0 0 0 0 0 0 0 0 0 0 0 0 0 0 0 0 0 0 0 0 0 0 0 0 0 0 0 0 0 0 0 0 0 0 0 0 0 0 0 0 0
0 0 0 0 0 0 0 0 0 0 0 0 0 0 0 0 0 0 0 0 0 0 0 0 0 0 0 0 0 0 0 0 0 0 0 0 0 0 0 0 0 0 0
0 0 0 0 0 0 0 0 0 0 0 0 0 0 0 0 0 0 0 0 0 0 0 0 0 0 0 0 0 0 0 0 0 0 0 0 0 0 0 0 0 0 0
0 0 0 0 0 0 0 0 0 0 0 0 0 0 0 0 0 0 0 0 0 0 0 0 0 0 0 0 0 0 0 0 0 0 0 0 0 0 0 0 0 0 0
0 0 0 0 0 0 0 0 0 0 0 0 0 0 0 0 0 0 0 0 0 0 0 0 0 0 0 0 0 0 0 0 0 0 0 0 0 0 0 0 0 0 0
0 0 0 0 0 0 0 0 0 0 0 0 0 0 0 0 0 0 0 0 0 0 0 0 0 0 0 0 0 0 0 0 0 0 0 0 0 0 0 0 0 0 0
0 0 0 0 0 0 0 0 0 0 0 0 0 0 0 0 0 0 0 0 0 0 0 0 0 0 0 0 0 0 0 0 0 0 0 0 0 0 0 0 0 0 0
0 0 0 0 0 0 0 0 0 0 0 0 0 0 0 0 0 0 0 0 0 0 0 0 0 0 0 0 0 0 0 0 0 0 0 0 0 0 0 0 0 0 0
0 0 0 0 0 0 0 0 0 0 0 0 0 0 0 0 0 0 0 0 0 0 0 0 0 0 0 0 0 0 0 0 0 0 0 0 0 0 0 0 0 0 0
0 0 0 0 0 0 0 0 0 0 0 0 0 0 0 0 0 0 0 0 0 0 0 0 0 0 0 0 0 0 0 0 0 0 0 0 0 0 0 0 0 0 0
0 0 0 0 0 0 0 0 0 0 0 0 0 0 0 0 0 0 0 0 0 0 0 0 0 0 0 0 0 0 0 0 0 0 0 0 0 0 0 0 0 0 0
0 0 0 0 0 0 0 0 0 0 0 0 0 0 -0 -0 0 0 -0 -0 0 0 0 0 0 0 0 0 0 0 0 0 0 0 0 0 0 0 0 0 0 0 0
0 0 0 0 0 0 0 0 0 0 0 0 -0 -0 0 -0 -0 -0 -0 -0 0 0 0 0 0 0 0 0 0 0 0 0 0 0 0 0 0 0 0 0 0 0 0
0 0 0 0 0 0 0 -0 0 0 0 0 0 0 -0 0 -0 -0 0 0 0 0 0 0 0 0 0 0 0 0 0 0 0 0 0 0 0 0 0 0 0 0 0
0 0 0 0 0 0 0 0 0 0 0 0 0 0 0 0 -0 0 0 0 0 0 0 0 0 0 0 0 0 0 0 0 0 0 0 0 0 0 0 0 0 0 0
0 0 0 0 0 0 -0 -0 0 0 0 0 0 -0 -0 -0 -0 -0 -0 0 0 0 0 0 0 0 0 0 0 0 0 0 0 0 0 0 0 0 0 0 0 0 0
Wind_Speed_500mb
59 58 54 51 46 44 53 59 71 74 75 87 84 72 68 63 63 71 68 69 79 78 80 74 73 67 62 59 54 51 48 44 44 46 49 40 43 41 41 37 30 32 31
73 70 71 70 64 56 50 53 61 67 84 83 88 87 79 74 72 76 71 77 82 83 83 80 74 71 65 66 62 56 54 53 53 49 49 50 48 43 43 42 36 34 30
76 76 76 77 77 74 67 63 62 63 82 84 89 83 87 89 83 81 84 75 77 83 88 88 82 79 73 71 68 62 63 58 63 55 52 56 52 45 47 44 36 33 35
73 72 76 77 74 76 77 76 73 71 70 63 72 89 98 89 92 86 87 92 93 86 91 96 91 88 81 78 72 70 68 67 69 62 60 53 54 48 47 43 35 35 36
68 65 65 66 66 67 74 75 82 81 83 73 75 67 106 107 105 99 86 89 98 100 94 100 100 93 89 86 80 78 72 70 72 70 68 57 59 48 49 43 39 36 40
58 57 56 55 61 72 73 69 67 80 87 87 79 79 57 89 124 114 107 96 96 101 104 103 103 104 94 93 89 84 79 73 78 75 73 68 60 55 51 48 45 41 38
57 56 58 57 55 58 62 66 64 65 72 82 85 90 90 82 66 114 122 109 103 97 109 111 109 110 107 100 100 94 86 79 81 79 74 69 64 60 52 51 50 46 40
50 50 52 53 52 55 55 55 54 62 62 60 72 53 52 78 96 78 111 125 111 105 107 121 115 107 113 107 110 106 99 87 89 80 77 76 71 69 61 55 54 53 48
52 49 50 53 56 55 58 52 50 54 60 57 60 54 31 43 57 67 83 112 116 111 110 116 123 115 110 111 111 111 101 99 95 88 82 82 79 78 72 67 63 64 56
50 48 44 45 51 54 58 61 57 54 54 60 58 67 79 57 19 55 68 79 102 119 123 121 118 121 114 116 114 126 133 110 95 95 95 89 84 85 82 73 70 71 63
49 50 50 49 51 53 58 59 57 60 64 63 68 59 67 77 98 70 21 83 107 115 113 125 120 116 117 117 98 131 116 107 101 98 113 100 91 90 87 80 76 76 70
54 55 55 58 59 60 59 59 60 64 67 70 73 72 71 68 68 75 82 57 59 93 115 106 116 118 113 115 114 122 113 110 108 103 105 121 108 97 93 89 82 81 76
62 63 58 59 62 64 60 60 64 66 66 70 78 79 83 84 73 66 66 85 76 80 80 110 109 126 122 121 114 119 124 125 118 107 108 120 122 110 108 99 93 90 87
63 63 62 62 62 62 60 60 69 73 71 69 77 79 85 81 76 75 78 62 73 73 93 91 112 122 128 124 121 129 119 116 120 106 112 133 125 124 117 116 105 99 93
60 59 60 60 60 61 64 66 71 74 73 74 74 78 81 96 91 65 77 86 69 68 65 96 105 122 130 130 126 129 134 125 116 105 111 129 137 123 131 136 113 108 104
58 58 57 58 60 61 62 60 73 82 84 74 78 74 83 82 94 94 91 93 95 61 61 86 91 87 97 120 134 142 133 124 124 114 110 106 118 121 144 135 128 120 115
54 57 57 60 62 62 61 60 68 69 78 75 72 79 80 67 78 99 79 61 86 77 71 42 51 63 98 107 112 138 133 128 113 110 123 106 121 121 103 144 132 127 111
51 52 53 57 61 63 64 60 63 63 74 75 72 78 80 89 65 67 92 62 63 78 83 67 74 60 56 82 89 75 95 117 112 121 100 97 93 116 93 134 128 128 112
50 49 52 55 57 58 62 61 57 60 73 72 73 73 71 59 75 71 66 57 52 58 69 82 69 70 69 49 58 73 72 68 76 99 106 101 93 91 105 116 122 115 110
51 52 52 53 52 54 57 56 51 49 61 64 64 67 53 60 62 64 60 78 66 62 64 73 74 65 64 56 59 53 52 58 57 58 58 66 67 86 99 102 105 99 89
48 48 50 50 47 49 48 47 41 40 41 52 54 52 51 53 54 61 67 73 79 74 63 72 76 80 78 57 51 51 51 48 45 47 52 65 82 95 101 87 75 62 49
49 47 49 50 47 45 41 37 28 27 30 36 45 51 51 50 49 55 67 65 66 57 78 75 85 80 81 70 59 57 58 53 54 61 66 73 81 83 70 55 46 41 38
54 52 51 52 51 48 48 23 13 20 26 32 37 37 46 52 51 52 51 58 63 55 67 84 71 76 78 70 64 60 54 56 66 66 73 68 59 58 52 46 43 38 35
57 56 54 53 54 53 48 39 22 17 26 33 33 31 34 33 36 41 44 47 42 54 63 67 64 70 67 63 56 51 61 71 59 70 75 68 59 55 49 45 41 35 36
57 57 56 54 54 52 42 35 25 15 7 6 6 4 7 14 22 31 35 37 39 38 39 38 31 26 23 24 36 45 61 67 63 70 70 57 59 53 46 41 39 39 41
48 51 55 56 53 51 43 33 27 26 26 25 23 20 11 4 5 7 14 28 34 33 39 44 41 32 24 22 21 26 42 61 66 57 67 55 61 54 41 49 47 45 45
Wind_Direction_500mb
301 298 293 288 283 275 265 259 249 246 242 239 238 234 233 227 229 218 224 224 230 225 221 219 216 218 212 212 217 214 212 216 205 207 196 201 197 192 192 199 203 188 189
295 291 289 286 281 275 272 263 255 245 244 244 228 234 236 234 231 223 221 226 230 226 224 220 214 219 213 212 216 216 211 209 205 209 204 200 204 198 202 202 207 197 196
287 284 282 280 279 277 269 263 258 257 247 244 244 252 247 235 237 230 225 222 233 226 226 225 223 222 221 216 213 214 209 206 207 206 210 203 213 208 201 206 211 210 202
284 278 273 270 272 273 273 264 259 258 257 253 244 249 241 241 239 240 232 231 231 229 224 227 227 226 226 219 221 216 212 203 210 207 208 214 213 215 209 214 219 213 214
282 276 272 268 266 263 266 267 263 258 256 255 253 251 245 245 238 239 234 238 235 236 231 226 227 229 227 225 223 218 217 212 212 209 209 213 212 216 214 221 216 215 209
283 278 275 271 266 261 259 259 264 264 259 258 256 250 249 239 236 235 236 232 238 237 236 231 228 230 228 229 227 224 219 220 213 212 211 212 219 215 217 218 215 213 213
281 278 277 275 271 265 263 260 258 261 265 260 260 255 249 246 236 232 235 227 230 235 236 236 234 229 228 231 227 226 218 219 217 220 216 219 221 215 214 213 215 214 216
283 277 275 274 271 266 262 254 252 253 257 257 256 259 261 251 246 244 240 227 226 231 233 235 233 232 231 228 223 221 230 220 218 222 221 219 220 218 217 215 215 215 215
283 280 274 271 269 264 262 259 255 249 253 251 248 240 243 241 245 253 233 221 230 229 234 234 234 233 235 235 232 247 220 230 218 223 225 219 221 220 221 219 215 212 213
287 284 278 271 268 267 265 262 258 252 249 253 247 244 245 240 240 250 240 221 224 227 234 234 234 236 232 232 240 227 239 225 225 224 225 225 221 219 221 220 216 214 214
289 288 285 280 272 266 264 263 262 257 246 250 246 246 246 254 245 255 270 236 234 223 228 232 235 234 240 237 234 224 222 222 227 230 223 229 228 223 220 218 219 221 217
291 286 282 281 279 276 271 267 262 259 253 249 246 246 244 242 243 241 247 251 241 228 216 227 233 235 233 238 231 231 233 238 223 232 232 230 227 227 224 225 223 223 234
299 294 290 286 285 282 277 273 266 264 259 252 248 246 245 244 245 244 244 247 250 250 239 231 225 234 235 234 234 234 237 234 240 235 236 234 232 227 229 226 224 221 227
299 300 298 294 290 282 276 271 268 270 262 261 251 250 244 243 245 244 241 245 237 244 248 245 229 223 234 233 241 240 236 237 234 244 235 240 244 229 232 226 226 230 219
301 300 298 292 286 283 280 279 269 267 268 258 261 254 252 246 239 242 243 242 239 232 231 231 234 231 227 235 237 242 246 241 243 245 239 235 238 233 240 231 225 223 215
307 305 304 301 297 291 284 277 270 269 262 258 256 261 254 251 248 239 243 246 243 252 244 243 242 243 241 238 245 240 241 242 245 240 251 243 246 248 236 236 232 220 217
310 307 307 305 304 300 292 286 275 265 260 262 258 259 249 243 246 242 243 243 232 239 247 251 237 246 246 239 243 243 245 242 241 246 251 254 245 251 251 237 237 216 209
319 316 313 311 309 306 300 289 283 264 260 259 256 259 262 244 237 236 245 247 243 240 242 247 246 251 257 245 243 244 245 246 240 244 238 237 253 243 253 226 212 210 206
327 326 324 318 314 313 310 295 280 265 255 255 256 257 253 248 245 233 230 232 238 249 244 239 244 244 254 251 254 248 247 250 249 244 246 240 237 240 230 212 205 200 200
338 336 330 324 321 315 310 303 279 266 254 253 255 255 259 240 239 244 241 238 245 258 239 240 234 235 249 254 243 240 240 241 243 248 240 243 227 211 200 191 188 193 191
345 341 339 336 331 323 316 310 285 267 258 248 254 260 249 244 242 237 238 235 243 249 246 235 230 229 230 239 234 234 233 234 211 210 204 201 200 192 185 186 184 182 194
360 358 357 353 348 341 331 311 285 266 260 255 257 258 261 248 241 240 237 237 237 256 235 241 238 237 234 233 233 234 224 202 172 179 187 177 186 180 175 177 187 196 206
12 12 11 9 8 2 6 347 300 268 268 271 271 261 255 255 260 261 254 248 241 253 252 248 242 236 230 235 238 233 222 214 198 182 187 166 170 172 173 183 193 205 219
22 20 18 19 16 12 8 4 353 290 280 282 274 260 250 242 237 246 243 246 252 246 239 239 240 246 239 240 228 224 210 202 189 179 186 165 170 174 180 191 201 216 230
27 30 28 25 28 22 16 14 8 8 351 326 296 246 221 208 217 233 239 238 237 228 219 228 221 211 211 232 232 220 201 195 174 178 183 184 176 179 187 203 215 225 227
32 34 35 35 34 38 29 36 49 66 72 78 86 94 100 118 118 185 224 209 191 160 164 160 156 159 157 154 190 211 220 201 193 183 189 190 191 193 197 215 223 225 228
Wind_Speed_850mb
59 58 54 51 46 44 53 59 71 74 75 87 84 72 68 63 63 71 68 69 79 78 80 74 73 67 62 59 54 51 48 44 44 46 49 40 43 41 41 37 30 32 31
73 70 71 70 64 56 50 53 61 67 84 83 88 87 79 74 72 76 71 77 82 83 83 80 74 71 65 66 62 56 54 53 53 49 49 50 48 43 43 42 36 34 30
76 76 76 77 77 74 67 63 62 63 82 84 89 83 87 89 83 81 84 75 77 83 88 88 82 79 73 71 68 62 63 58 63 55 52 56 52 45 47 44 36 33 35
73 72 76 77 74 76 77 76 73 71 70 63 72 89 98 89 92 86 87 92 93 86 91 96 91 88 81 78 72 70 68 67 69 62 60 53 54 48 47 43 35 35 36
68 65 65 66 66 67 74 75 82 81 83 73 75 67 106 107 105 99 86 89 98 100 94 100 100 93 89 86 80 78 72 70 72 70 68 57 59 48 49 43 39 36 40
58 57 56 55 61 72 73 69 67 80 87 87 79 79 57 89 124 114 107 96 96 101 104 103 103 104 94 93 89 84 79 73 78 75 73 68 60 55 51 48 45 41 38
57 56 58 57 55 58 62 66 64 65 72 82 85 90 90 82 66 114 122 109 103 97 109 111 109 110 107 100 100 94 86 79 81 79 74 69 64 60 52 51 50 46 40
50 50 52 53 52 55 55 55 54 62 62 60 72 53 52 78 96 78 111 125 111 105 107 121 115 107 113 107 110 106 99 87 89 80 77 76 71 69 61 55 54 53 48
52 49 50 53 56 55 58 52 50 54 60 57 60 54 31 43 57 67 83 112 116 111 110 116 123 115 110 111 111 111 101 99 95 88 82 82 79 78 72 67 63 64 56
50 48 44 45 51 54 58 61 57 54 54 60 58 67 79 57 19 55 68 79 102 119 123 121 118 121 114 116 114 126 133 110 95 95 95 89 84 85 82 73 70 71 63
49 50 50 49 51 53 58 59 57 60 64 63 68 59 67 77 98 70 21 83 107 115 113 125 120 116 117 117 98 131 116 107 101 98 113 100 91 90 87 80 76 76 70
54 55 55 58 59 60 59 59 60 64 67 70 73 72 71 68 68 75 82 57 59 93 115 106 116 118 113 115 114 122 113 110 108 103 105 121 108 97 93 89 82 81 76
62 63 58 59 62 64 60 60 64 66 66 70 78 79 83 84 73 66 66 85 76 80 80 110 109 126 122 121 114 119 124 125 118 107 108 120 122 110 108 99 93 90 87
63 63 62 62 62 62 60 60 69 73 71 69 77 79 85 81 76 75 78 62 73 73 93 91 112 122 128 124 121 129 119 116 120 106 112 133 125 124 117 116 105 99 93
60 59 60 60 60 61 64 66 71 74 73 74 74 78 81 96 91 65 77 86 69 68 65 96 105 122 130 130 126 129 134 125 116 105 111 129 137 123 131 136 113 108 104
58 58 57 58 60 61 62 60 73 82 84 74 78 74 83 82 94 94 91 93 95 61 61 86 91 87 97 120 134 142 133 124 124 114 110 106 118 121 144 135 128 120 115
54 57 57 60 62 62 61 60 68 69 78 75 72 79 80 67 78 99 79 61 86 77 71 42 51 63 98 107 112 138 133 128 113 110 123 106 121 121 103 144 132 127 111
51 52 53 57 61 63 64 60 63 63 74 75 72 78 80 89 65 67 92 62 63 78 83 67 74 60 56 82 89 75 95 117 112 121 100 97 93 116 93 134 128 128 112
50 49 52 55 57 58 62 61 57 60 73 72 73 73 71 59 75 71 66 57 52 58 69 82 69 70 69 49 58 73 72 68 76 99 106 101 93 91 105 116 122 115 110
51 52 52 53 52 54 57 56 51 49 61 64 64 67 53 60 62 64 60 78 66 62 64 73 74 65 64 56 59 53 52 58 57 58 58 66 67 86 99 102 105 99 89
48 48 50 50 47 49 48 47 41 40 41 52 54 52 51 53 54 61 67 73 79 74 63 72 76 80 78 57 51 51 51 48 45 47 52 65 82 95 101 87 75 62 49
49 47 49 50 47 45 41 37 28 27 30 36 45 51 51 50 49 55 67 65 66 57 78 75 85 80 81 70 59 57 58 53 54 61 66 73 81 83 70 55 46 41 38
54 52 51 52 51 48 48 23 13 20 26 32 37 37 46 52 51 52 51 58 63 55 67 84 71 76 78 70 64 60 54 56 66 66 73 68 59 58 52 46 43 38 35
57 56 54 53 54 53 48 39 22 17 26 33 33 31 34 33 36 41 44 47 42 54 63 67 64 70 67 63 56 51 61 71 59 70 75 68 59 55 49 45 41 35 36
57 57 56 54 54 52 42 35 25 15 7 6 6 4 7 14 22 31 35 37 39 38 39 38 31 26 23 24 36 45 61 67 63 70 70 57 59 53 46 41 39 39 41
48 51 55 56 53 51 43 33 27 26 26 25 23 20 11 4 5 7 14 28 34 33 39 44 41 32 24 22 21 26 42 61 66 57 67 55 61 54 41 49 47 45 45
Wind_Direction_850mb
301 298 293 288 283 275 265 259 249 246 242 239 238 234 233 227 229 218 224 224 230 225 221 219 216 218 212 212 217 214 212 216 205 207 196 201 197 192 192 199 203 188 189
295 291 289 286 281 275 272 263 255 245 244 244 228 234 236 234 231 223 221 226 230 226 224 220 214 219 213 212 216 216 211 209 205 209 204 200 204 198 202 202 207 197 196
287 284 282 280 279 277 269 263 258 257 247 244 244 252 247 235 237 230 225 222 233 226 226 225 223 222 221 216 213 214 209 206 207 206 210 203 213 208 201 206 211 210 202
284 278 273 270 272 273 273 264 259 258 257 253 244 249 241 241 239 240 232 231 231 229 224 227 227 226 226 219 221 216 212 203 210 207 208 214 213 215 209 214 219 213 214
282 276 272 268 266 263 266 267 263 258 256 255 253 251 245 245 238 239 234 238 235 236 231 226 227 229 227 225 223 218 217 212 212 209 209 213 212 216 214 221 216 215 209
283 278 275 271 266 261 259 259 264 264 259 258 256 250 249 239 236 235 236 232 238 237 236 231 228 230 228 229 227 224 219 220 213 212 211 212 219 215 217 218 215 213 213
281 278 277 275 271 265 263 260 258 261 265 260 260 255 249 246 236 232 235 227 230 235 236 236 234 229 228 231 227 226 218 219 217 220 216 219 221 215 214 213 215 214 216
283 277 275 274 271 266 262 254 252 253 257 257 256 259 261 251 246 244 240 227 226 231 233 235 233 232 231 228 223 221 230 220 218 222 221 219 220 218 217 215 215 215 215
283 280 274 271 269 264 262 259 255 249 253 251 248 240 243 241 245 253 233 221 230 229 234 234 234 233 235 235 232 247 220 230 218 223 225 219 221 220 221 219 215 212 213
287 284 278 271 268 267 265 262 258 252 249 253 247 244 245 240 240 250 240 221 224 227 234 234 234 236 232 232 240 227 239 225 225 224 225 225 221 219 221 220 216 214 214
289 288 285 280 272 266 264 263 262 257 246 250 246 246 246 254 245 255 270 236 234 223 228 232 235 234 240 237 234 224 222 222 227 230 223 229 228 223 220 218 219 221 217
291 286 282 281 279 276 271 267 262 259 253 249 246 246 244 242 243 241 247 251 241 228 216 227 233 235 233 238 231 231 233 238 223 232 232 230 227 227 224 225 223 223 234
299 294 290 286 285 282 277 273 266 264 259 252 248 246 245 244 245 244 244 247 250 250 239 231 225 234 235 234 234 234 237 234 240 235 236 234 232 227 229 226 224 221 227
299 300 298 294 290 282 276 271 268 270 262 261 251 250 244 243 245 244 241 245 237 244 248 245 229 223 234 233 241 240 236 237 234 244 235 240 244 229 232 226 226 230 219
301 300 298 292 286 283 280 279 269 267 268 258 261 254 252 246 239 242 243 242 239 232 231 231 234 231 227 235 237 242 246 241 243 245 239 235 238 233 240 231 225 223 215
307 305 304 301 297 291 284 277 270 269 262 258 256 261 254 251 248 239 243 246 243 252 244 243 242 243 241 238 245 240 241 242 245 240 251 243 246 248 236 236 232 220 217
310 307 307 305 304 300 292 286 275 265 260 262 258 259 249 243 246 242 243 243 232 239 247 251 237 246 246 239 243 243 245 242 241 246 251 254 245 251 251 237 237 216 209
319 316 313 311 309 306 300 289 283 264 260 259 256 259 262 244 237 236 245 247 243 240 242 247 246 251 257 245 243 244 245 246 240 244 238 237 253 243 253 226 212 210 206
327 326 324 318 314 313 310 295 280 265 255 255 256 257 253 248 245 233 230 232 238 249 244 239 244 244 254 251 254 248 247 250 249 244 246 240 237 240 230 212 205 200 200
338 336 330 324 321 315 310 303 279 266 254 253 255 255 259 240 239 244 241 238 245 258 239 240 234 235 249 254 243 240 240 241 243 248 240 243 227 211 200 191 188 193 191
345 341 339 336 331 323 316 310 285 267 258 248 254 260 249 244 242 237 238 235 243 249 246 235 230 229 230 239 234 234 233 234 211 210 204 201 200 192 185 186 184 182 194
360 358 357 353 348 341 331 311 285 266 260 255 257 258 261 248 241 240 237 237 237 256 235 241 238 237 234 233 233 234 224 202 172 179 187 177 186 180 175 177 187 196 206
12 12 11 9 8 2 6 347 300 268 268 271 271 261 255 255 260 261 254 248 241 253 252 248 242 236 230 235 238 233 222 214 198 182 187 166 170 172 173 183 193 205 219
22 20 18 19 16 12 8 4 353 290 280 282 274 260 250 242 237 246 243 246 252 246 239 239 240 246 239 240 228 224 210 202 189 179 186 165 170 174 180 191 201 216 230
27 30 28 25 28 22 16 14 8 8 351 326 296 246 221 208 217 233 239 238 237 228 219 228 221 211 211 232 232 220 201 195 174 178 183 184 176 179 187 203 215 225 227
32 34 35 35 34 38 29 36 49 66 72 78 86 94 100 118 118 185 224 209 191 160 164 160 156 159 157 154 190 211 220 201 193 183 189 190 191 193 197 215 223 225 228